Location: The Saddle
(36.8333°N, 80.3417°W)
Time: 01:52:34
(UTC-05:00)

A-11 Canister half - Pass Details

Date: 15 December 2023
Orbit: 1526 x 1682 km, 47.3° (Epoch: 01 March)

Event Time Altitude Azimuth Distance (km) Brightness Sun altitude
Rises 21:36:14 0° 300° (WNW) 4,937 12.2 -53.1°
Reaches altitude 10° 21:39:28 10° 303° (WNW) 3,944 11.5 -53.7°
Enters shadow 21:43:15 26° 309° (NW) 2,843 10.5 -54.4°
